This is the latest recevied weather packets stored in our database for station/object K5BOU. If no packets are shown the sender has not sent any weather packets the latest 10 day(s).
| Time | Temp. | Humidity | Pressure | Rain* | Wind** | Luminosity | Snow |
|---|---|---|---|---|---|---|---|
| 1778027746 | 26.67° C | 90% | 1004.6 hPa | 0 mm | - | 7 W/m² | - |
| 1778027442 | 26.67° C | 89% | 1004.6 hPa | 0 mm | - | 6 W/m² | - |
| 1778027138 | 26.67° C | 88% | 1004.7 hPa | 0 mm | - | 17 W/m² | - |
| 1778026834 | 26.67° C | 88% | 1004.9 hPa | 0 mm | - | 21 W/m² | - |
| 1778026530 | 26.67° C | 87% | 1004.6 hPa | 0 mm | - | 27 W/m² | - |
| 1778026228 | 26.67° C | 87% | 1004.6 hPa | 0 mm | - | 35 W/m² | - |
| 1778025925 | 26.67° C | 87% | 1004.6 hPa | 0 mm | - | 46 W/m² | - |
| 1778025623 | 26.67° C | 86% | 1004.7 hPa | 0 mm | - | 32 W/m² | - |
| 1778025321 | 26.67° C | 86% | 1004.9 hPa | 0 mm | - | 37 W/m² | - |
| 1778025017 | 26.67° C | 86% | 1004.6 hPa | 0 mm | - | 42 W/m² | - |
| 1778024714 | 27.22° C | 87% | 1004.4 hPa | 0 mm | - | 60 W/m² | - |
| 1778024411 | 27.22° C | 87% | 1004.6 hPa | 0 mm | - | 100 W/m² | - |
| 1778024108 | 27.22° C | 87% | 1004.6 hPa | 0 mm | - | 107 W/m² | - |
| 1778023806 | 27.22° C | 87% | 1004.6 hPa | 0 mm | - | 96 W/m² | - |
| 1778023504 | 27.22° C | 87% | 1004.5 hPa | 0 mm | - | 94 W/m² | - |
| 1778023201 | 27.22° C | 87% | 1004.5 hPa | 0 mm | - | 94 W/m² | - |
| 1778022897 | 27.22° C | 87% | 1004.8 hPa | 0 mm | - | 97 W/m² | - |
| 1778022596 | 27.22° C | 87% | 1004.7 hPa | 0 mm | - | 97 W/m² | - |
| 1778022293 | 27.78° C | 87% | 1004.7 hPa | 0 mm | - | 104 W/m² | - |
| 1778021989 | 27.22° C | 86% | 1004.8 hPa | 0 mm | - | 145 W/m² | - |
| 1778021687 | 27.78° C | 87% | 1004.6 hPa | 0 mm | - | 171 W/m² | - |
| 1778021383 | 27.78° C | 86% | 1004.7 hPa | 0 mm | - | 167 W/m² | - |
| 1778021079 | 27.78° C | 86% | 1004.9 hPa | 0 mm | - | 137 W/m² | - |
| 1778020777 | 27.78° C | 87% | 1004.8 hPa | 0 mm | - | 152 W/m² | - |
| 1778020474 | 27.78° C | 87% | 1005 hPa | 0 mm | - | 129 W/m² | - |
* Rain latest hour (hover to see other rain measurements)
** Current wind speed in m/s (hover to see current wind gust speed)